Weather History for PAZK - February, 2014

Change the Weather History Date:

Monday, February 24, 2014

  Actual Average Record
Temperature  
Mean Temperature 1 °F -  
Max Temperature 6 °F - - ()
Min Temperature -4 °F - - ()
Degree Days  
Heating Degree Days 64    
Moisture  
Dew Point -4 °F    
Average Humidity 78    
Maximum Humidity 92    
Minimum Humidity 66    
Precipitation  
Precipitation 0.00 in - - ()
Sea Level Pressure  
Sea Level Pressure 29.97 in    
Wind  
Wind Speed 6 mph (NE)    
Max Wind Speed 8 mph    
Max Gust Speed -    
Visibility 10 miles    
Events      
T = Trace of Precipitation, MM = Missing Value Source: NWS Daily Summary

Daily Weather History Graph

Daily Weather History Graph

Search for Another Location

Airport or City:

Trip Planner

Search our weather history database for the weather conditions in past years. The results will help you decide how hot, cold, wet, or windy it might be!

Date:

Astronomy

Feb. 24, 2014 Rise Set
Actual Time 8:05 AM AKST 5:58 PM AKST
Civil Twilight 7:20 AM AKST 6:44 PM AKST
Nautical Twilight 6:29 AM AKST 7:35 PM AKST
Astronomical Twilight 5:38 AM AKST 8:27 PM AKST
Moon 5:14 AM AKST (2/24) 12:09 PM AKST (2/24)
Length of Visible Light 11h 23m
Length of Day
9h 53m
Waning Crescent, 26% of the Moon is Illuminated
Feb 24
Waning Crescent
Feb 28
New
Mar 8
First Quarter
Mar 16
Full
Mar 23
Last Quarter

Hourly Weather History & Observations

Time (AKST) Temp. Windchill Dew Point Humidity Pressure Visibility Wind Dir Wind Speed Gust Speed Precip Events Conditions
12:16 AM 1.4 °F -9.9 °F -2.2 °F 85% 30.00 in 10.0 mi ENE 5.8 mph - N/A   Clear
12:36 AM -0.4 °F -13.4 °F -5.8 °F 78% 29.99 in 10.0 mi ENE 6.9 mph - N/A   Clear
12:56 AM -0.4 °F -13.4 °F -2.2 °F 92% 29.99 in 10.0 mi NE 6.9 mph - N/A   Clear
1:16 AM -0.4 °F -14.7 °F -7.6 °F 72% 29.99 in 10.0 mi ENE 8.1 mph - N/A   Clear
1:36 AM -0.4 °F -14.7 °F -5.8 °F 78% 29.99 in 10.0 mi ENE 8.1 mph - N/A   Clear
1:56 AM -0.4 °F -13.4 °F -5.8 °F 78% 29.98 in 10.0 mi ENE 6.9 mph - N/A   Clear
2:16 AM -0.4 °F -13.4 °F -5.8 °F 78% 29.98 in 10.0 mi ENE 6.9 mph - N/A   Clear
2:36 AM -0.4 °F -14.7 °F -4.0 °F 85% 29.98 in 10.0 mi NE 8.1 mph - N/A   Clear
2:56 AM -0.4 °F -13.4 °F -7.6 °F 72% 29.98 in 10.0 mi NE 6.9 mph - N/A   Clear
3:16 AM -0.4 °F -13.4 °F -5.8 °F 78% 29.97 in 10.0 mi NE 6.9 mph - N/A   Clear
3:36 AM -0.4 °F -13.4 °F -5.8 °F 78% 29.97 in 10.0 mi ENE 6.9 mph - N/A   Clear
3:56 AM -0.4 °F -13.4 °F -7.6 °F 72% 29.97 in 10.0 mi ENE 6.9 mph - N/A   Clear
4:16 AM -0.4 °F -13.4 °F -5.8 °F 78% 29.97 in 10.0 mi NE 6.9 mph - N/A   Clear
4:36 AM -0.4 °F -13.4 °F -5.8 °F 78% 29.96 in 10.0 mi NE 6.9 mph - N/A   Clear
4:56 AM -0.4 °F -13.4 °F -5.8 °F 78% 29.96 in 10.0 mi NE 6.9 mph - N/A   Clear
5:16 AM -0.4 °F -13.4 °F -5.8 °F 78% 29.96 in 10.0 mi NE 6.9 mph - N/A   Clear
5:36 AM -0.4 °F -12.0 °F -7.6 °F 72% 29.96 in 10.0 mi NE 5.8 mph - N/A   Clear
5:56 AM -0.4 °F -12.0 °F -7.6 °F 72% 29.95 in 10.0 mi NE 5.8 mph - N/A   Clear
6:16 AM -0.4 °F -13.4 °F -5.8 °F 78% 29.95 in 10.0 mi ENE 6.9 mph - N/A   Clear
6:36 AM -0.4 °F -13.4 °F -5.8 °F 78% 29.95 in 10.0 mi NE 6.9 mph - N/A   Clear
6:56 AM -0.4 °F -14.7 °F -5.8 °F 78% 29.94 in 10.0 mi ENE 8.1 mph - N/A   Clear
7:16 AM -2.2 °F -15.6 °F -7.6 °F 78% 29.94 in 10.0 mi NE 6.9 mph - N/A   Clear
7:36 AM -2.2 °F -14.2 °F -9.4 °F 71% 29.94 in 10.0 mi NE 5.8 mph - N/A   Clear
7:56 AM -4.0 °F -16.3 °F -9.4 °F 78% 29.95 in 10.0 mi NE 5.8 mph - N/A   Clear
8:16 AM -4.0 °F -17.8 °F -9.4 °F 78% 29.94 in 10.0 mi NE 6.9 mph - N/A   Clear
8:36 AM -2.2 °F -14.2 °F -7.6 °F 78% 29.95 in 10.0 mi NE 5.8 mph - N/A   Clear
8:56 AM -2.2 °F -16.8 °F -5.8 °F 85% 29.95 in 10.0 mi ENE 8.1 mph - N/A   Clear
9:16 AM -2.2 °F -10.4 °F -9.4 °F 71% 29.96 in 10.0 mi NE 3.5 mph - N/A   Clear
9:36 AM -0.4 °F - -4.0 °F 85% 29.96 in 10.0 mi Calm Calm - N/A   Clear
9:56 AM -0.4 °F -12.0 °F -5.8 °F 78% 29.95 in 10.0 mi NE 5.8 mph - N/A   Clear
10:16 AM -0.4 °F -13.4 °F -2.2 °F 92% 29.95 in 10.0 mi NE 6.9 mph - N/A   Clear
10:36 AM 1.4 °F -12.5 °F -0.4 °F 92% 29.96 in 10.0 mi NE 8.1 mph - N/A   Clear
10:56 AM 1.4 °F -12.5 °F -2.2 °F 85% 29.96 in 10.0 mi NE 8.1 mph - N/A   Clear
11:16 AM 3.2 °F -4.2 °F -0.4 °F 85% 29.96 in 10.0 mi NE 3.5 mph - N/A   Clear
11:36 AM 3.2 °F -6.2 °F -4.0 °F 72% 29.96 in 10.0 mi ENE 4.6 mph - N/A   Clear
11:56 AM 3.2 °F -4.2 °F -0.4 °F 85% 29.97 in 10.0 mi ENE 3.5 mph - N/A   Clear
12:16 PM 3.2 °F -4.2 °F -2.2 °F 78% 29.97 in 10.0 mi ENE 3.5 mph - N/A   Clear
12:36 PM 3.2 °F -7.8 °F -2.2 °F 78% 29.97 in 10.0 mi ENE 5.8 mph - N/A   Clear
12:56 PM 3.2 °F -6.2 °F -2.2 °F 78% 29.97 in 10.0 mi ENE 4.6 mph - N/A   Clear
1:16 PM 5.0 °F -4.1 °F -0.4 °F 78% 29.97 in 10.0 mi ENE 4.6 mph - N/A   Clear
1:36 PM 6.8 °F -2.0 °F -0.4 °F 72% 29.98 in 10.0 mi NNE 4.6 mph - N/A   Clear
1:56 PM 5.0 °F -4.1 °F -0.4 °F 78% 29.97 in 10.0 mi NE 4.6 mph - N/A   Clear
2:16 PM 5.0 °F -5.6 °F -0.4 °F 78% 29.97 in 10.0 mi ENE 5.8 mph - N/A   Clear
2:36 PM 6.8 °F -2.0 °F 1.4 °F 79% 29.97 in 10.0 mi ENE 4.6 mph - N/A   Clear
2:56 PM 6.8 °F -3.5 °F -0.4 °F 72% 29.98 in 10.0 mi NE 5.8 mph - N/A   Clear
3:16 PM 6.8 °F -2.0 °F -0.4 °F 72% 29.98 in 10.0 mi ENE 4.6 mph - N/A   Clear
3:36 PM 6.8 °F -0.1 °F -0.4 °F 72% 29.98 in 10.0 mi East 3.5 mph - N/A   Clear
3:56 PM 6.8 °F - 1.4 °F 79% 29.97 in 10.0 mi Calm Calm - N/A   Clear
4:16 PM 5.0 °F -2.1 °F -0.4 °F 78% 29.97 in 10.0 mi East 3.5 mph - N/A   Clear
4:36 PM 5.0 °F - 1.4 °F 85% 29.97 in 10.0 mi Calm Calm - N/A   Clear
4:56 PM 3.2 °F - -0.4 °F 85% 29.97 in 10.0 mi Calm Calm - N/A   Clear
5:16 PM 3.2 °F - -0.4 °F 85% 29.96 in 10.0 mi Calm Calm - N/A   Clear
5:36 PM 3.2 °F -6.2 °F -0.4 °F 85% 29.96 in 10.0 mi ENE 4.6 mph - N/A   Clear
5:56 PM 3.2 °F -4.2 °F -2.2 °F 78% 29.96 in 10.0 mi ENE 3.5 mph - N/A   Clear
6:16 PM 1.4 °F -8.3 °F -5.8 °F 72% 29.96 in 10.0 mi NE 4.6 mph - N/A   Clear
6:36 PM 1.4 °F -11.3 °F -0.4 °F 92% 29.96 in 10.0 mi NE 6.9 mph - N/A   Clear
6:56 PM -0.4 °F -13.4 °F -2.2 °F 92% 29.96 in 10.0 mi NE 6.9 mph - N/A   Clear
7:16 PM 1.4 °F -11.3 °F -4.0 °F 78% 29.96 in 10.0 mi NE 6.9 mph - N/A   Clear
7:36 PM 1.4 °F -12.5 °F -2.2 °F 85% 29.97 in 10.0 mi NE 8.1 mph - N/A   Clear
7:56 PM 1.4 °F -11.3 °F -5.8 °F 72% 29.96 in 10.0 mi NE 6.9 mph - N/A   Clear
8:16 PM -2.2 °F -15.6 °F -9.4 °F 71% 29.97 in 10.0 mi ENE 6.9 mph - N/A   Clear
8:36 PM -0.4 °F -12.0 °F -2.2 °F 92% 29.97 in 10.0 mi ENE 5.8 mph - N/A   Clear
8:56 PM 1.4 °F -11.3 °F -4.0 °F 78% 29.97 in 10.0 mi NE 6.9 mph - N/A   Clear
9:16 PM 3.2 °F -9.1 °F -4.0 °F 72% 29.97 in 10.0 mi NE 6.9 mph - N/A   Clear
9:36 PM 1.4 °F -11.3 °F -4.0 °F 78% 29.97 in 10.0 mi NE 6.9 mph - N/A   Clear
9:56 PM 1.4 °F -9.9 °F -5.8 °F 72% 29.98 in 10.0 mi ENE 5.8 mph - N/A   Clear
10:16 PM 1.4 °F -9.9 °F -5.8 °F 72% 29.98 in 10.0 mi NE 5.8 mph - N/A   Clear
10:36 PM -0.4 °F -13.4 °F -7.6 °F 72% 29.98 in 10.0 mi ENE 6.9 mph - N/A   Clear
10:56 PM -0.4 °F -13.4 °F -5.8 °F 78% 29.98 in 10.0 mi ENE 6.9 mph - N/A   Clear
11:16 PM 1.4 °F -11.3 °F -5.8 °F 72% 29.98 in 10.0 mi NE 6.9 mph - N/A   Clear
11:36 PM 3.2 °F -10.3 °F -5.8 °F 66% 29.98 in 10.0 mi NE 8.1 mph - N/A   Clear
11:56 PM 1.4 °F -11.3 °F -7.6 °F 66% 29.98 in 10.0 mi NE 6.9 mph - N/A   Clear